N61PG TFFR-TFFF

Flight info

Callsign N61PG
Flight time 0h 27m
Altitude 16000
Route KATIM2F KATIM DCT KAREX DCT FOF
Aircraft C25B/M-SDE2E3FGHRWXY/LB1

Departure

Time 2026-05-06 15:40
Airport Maryse Condé International Airport (TFFR)

Arrival

Time 2026-05-06 16:07
Airport Martinique Aimé Césaire International Airport (TFFF)
Time Latitude Longitude Altitude Speed Heading
2026-05-06 15:26 16.26309 -61.52947 27 ft 0 kts 10°
2026-05-06 15:36 16.26310 -61.52947 27 ft 0 kts 21°
2026-05-06 15:37 16.26316 -61.52936 27 ft 6 kts 91°
2026-05-06 15:37 16.26354 -61.52882 27 ft 12 kts 38°
2026-05-06 15:37 16.26449 -61.52863 25 ft 12 kts 351°
2026-05-06 15:37 16.26486 -61.52947 24 ft 16 kts 280°
2026-05-06 15:38 16.26510 -61.53076 24 ft 20 kts 281°
2026-05-06 15:38 16.26539 -61.53234 24 ft 24 kts 280°
2026-05-06 15:38 16.26571 -61.53412 23 ft 27 kts 281°
2026-05-06 15:38 16.26591 -61.53473 23 ft 6 kts 307°
2026-05-06 15:39 16.26600 -61.53504 24 ft 2 kts 194°
2026-05-06 15:39 16.26595 -61.53503 24 ft 3 kts 165°
2026-05-06 15:39 16.26586 -61.53481 24 ft 21 kts 98°
2026-05-06 15:39 16.26484 -61.52934 57 ft 125 kts 103°
2026-05-06 15:40 16.26293 -61.51919 676 ft 165 kts 99°
2026-05-06 15:40 16.26054 -61.50686 1712 ft 184 kts 104°
2026-05-06 15:40 16.25758 -61.49327 2994 ft 203 kts 102°
2026-05-06 15:40 16.25488 -61.47837 4302 ft 219 kts 99°
2026-05-06 15:41 16.25250 -61.46233 5134 ft 221 kts 100°
2026-05-06 15:41 16.24967 -61.44676 5961 ft 212 kts 101°
2026-05-06 15:41 16.24676 -61.43205 6767 ft 203 kts 103°
2026-05-06 15:41 16.24020 -61.41970 7505 ft 197 kts 137°
2026-05-06 15:42 16.22851 -61.41296 8271 ft 191 kts 164°
2026-05-06 15:42 16.21540 -61.41282 9067 ft 185 kts 178°
2026-05-06 15:42 16.20294 -61.41242 9871 ft 174 kts 175°
2026-05-06 15:42 16.19121 -61.41250 10600 ft 163 kts 178°
2026-05-06 15:43 16.18005 -61.41246 11085 ft 171 kts 176°
2026-05-06 15:43 16.16652 -61.41248 10964 ft 215 kts 179°
2026-05-06 15:43 16.15064 -61.41260 11104 ft 242 kts 178°
2026-05-06 15:43 16.13276 -61.41255 11277 ft 271 kts 179°
2026-05-06 15:44 16.11300 -61.41256 11460 ft 296 kts 179°
2026-05-06 15:44 16.09170 -61.41257 11640 ft 316 kts 179°
2026-05-06 15:44 16.06912 -61.41264 11813 ft 333 kts 179°
2026-05-06 15:44 16.04587 -61.41272 12299 ft 335 kts 179°
2026-05-06 15:45 16.02246 -61.41279 12823 ft 337 kts 179°
2026-05-06 15:45 15.99894 -61.41281 13341 ft 339 kts 180°
2026-05-06 15:45 15.97526 -61.41279 13866 ft 342 kts 179°
2026-05-06 15:45 15.95139 -61.41235 14332 ft 344 kts 178°
2026-05-06 15:46 15.92737 -61.41195 14800 ft 346 kts 179°
2026-05-06 15:46 15.90320 -61.41174 15269 ft 348 kts 179°
2026-05-06 15:46 15.87923 -61.41141 15736 ft 350 kts 179°
2026-05-06 15:46 15.85477 -61.41118 16110 ft 356 kts 179°
2026-05-06 15:47 15.82944 -61.41080 16127 ft 372 kts 179°
2026-05-06 15:47 15.80319 -61.41046 16137 ft 378 kts 179°
2026-05-06 15:47 15.77705 -61.41014 16142 ft 373 kts 179°
2026-05-06 15:47 15.75131 -61.40991 16144 ft 369 kts 179°
2026-05-06 15:48 15.72576 -61.40952 16146 ft 365 kts 179°
2026-05-06 15:48 15.70046 -61.40924 16152 ft 363 kts 179°
2026-05-06 15:48 15.67528 -61.40896 16156 ft 361 kts 179°
2026-05-06 15:48 15.65019 -61.40859 16156 ft 359 kts 179°
2026-05-06 15:49 15.62528 -61.40837 16156 ft 358 kts 179°
2026-05-06 15:49 15.60037 -61.40800 16160 ft 358 kts 179°
2026-05-06 15:49 15.57551 -61.40776 16160 ft 357 kts 179°
2026-05-06 15:49 15.55067 -61.40737 16158 ft 357 kts 179°
2026-05-06 15:50 15.52587 -61.40713 16153 ft 356 kts 179°
2026-05-06 15:50 15.50109 -61.40688 16153 ft 356 kts 179°
2026-05-06 15:50 15.47634 -61.40649 16148 ft 355 kts 178°
2026-05-06 15:50 15.45163 -61.40615 16071 ft 355 kts 179°
2026-05-06 15:51 15.42697 -61.40594 16077 ft 355 kts 179°
2026-05-06 15:51 15.40227 -61.40563 16070 ft 355 kts 178°
2026-05-06 15:51 15.37779 -61.40312 16073 ft 353 kts 168°
2026-05-06 15:51 15.35360 -61.39879 16070 ft 353 kts 171°
2026-05-06 15:52 15.32925 -61.39560 16069 ft 353 kts 172°
2026-05-06 15:52 15.30494 -61.39203 16070 ft 353 kts 170°
2026-05-06 15:52 15.28067 -61.38813 16070 ft 353 kts 170°
2026-05-06 15:52 15.25637 -61.38442 16070 ft 353 kts 170°
2026-05-06 15:53 15.23209 -61.38071 16068 ft 353 kts 170°
2026-05-06 15:53 15.20781 -61.37709 16072 ft 353 kts 170°
2026-05-06 15:53 15.18354 -61.37334 16073 ft 353 kts 170°
2026-05-06 15:53 15.15926 -61.36962 16075 ft 353 kts 171°
2026-05-06 15:54 15.13478 -61.36594 15800 ft 361 kts 170°
2026-05-06 15:54 15.10953 -61.36201 15336 ft 372 kts 170°
2026-05-06 15:54 15.08371 -61.35814 14843 ft 373 kts 171°
2026-05-06 15:54 15.05845 -61.35437 14350 ft 361 kts 170°
2026-05-06 15:55 15.03391 -61.35058 13880 ft 352 kts 169°
2026-05-06 15:55 15.00994 -61.34690 13394 ft 344 kts 170°
2026-05-06 15:55 14.98654 -61.34339 12944 ft 336 kts 170°
2026-05-06 15:55 14.96367 -61.33989 12504 ft 329 kts 169°
2026-05-06 15:56 14.94120 -61.33643 12075 ft 323 kts 169°
2026-05-06 15:56 14.91946 -61.33319 11635 ft 299 kts 169°
2026-05-06 15:56 14.89920 -61.33014 11255 ft 294 kts 169°
2026-05-06 15:56 14.87902 -61.32703 10871 ft 292 kts 169°
2026-05-06 15:57 14.85895 -61.32393 10492 ft 291 kts 169°
2026-05-06 15:57 14.83897 -61.32093 10108 ft 289 kts 170°
2026-05-06 15:57 14.81911 -61.31792 9698 ft 287 kts 169°
2026-05-06 15:57 14.79934 -61.31488 9229 ft 287 kts 169°
2026-05-06 15:58 14.77962 -61.31193 8820 ft 285 kts 169°
2026-05-06 15:58 14.76007 -61.30894 8441 ft 283 kts 170°
2026-05-06 15:58 14.74068 -61.30603 8071 ft 281 kts 169°
2026-05-06 15:58 14.72152 -61.30310 7698 ft 274 kts 169°
2026-05-06 15:59 14.70295 -61.30025 7344 ft 266 kts 170°
2026-05-06 15:59 14.68488 -61.29758 6995 ft 259 kts 169°
2026-05-06 15:59 14.66723 -61.29489 6654 ft 254 kts 169°
2026-05-06 15:59 14.64993 -61.29224 6325 ft 249 kts 169°
2026-05-06 16:00 14.63300 -61.28971 5999 ft 242 kts 168°
2026-05-06 16:00 14.61666 -61.28722 5716 ft 233 kts 168°
2026-05-06 16:00 14.60077 -61.28480 5444 ft 229 kts 169°
2026-05-06 16:00 14.58561 -61.28042 5159 ft 226 kts 151°
2026-05-06 16:01 14.57261 -61.27162 5026 ft 221 kts 139°
2026-05-06 16:01 14.56056 -61.26169 4746 ft 224 kts 142°
2026-05-06 16:01 14.55032 -61.24976 4364 ft 227 kts 110°
2026-05-06 16:01 14.55014 -61.23371 4066 ft 227 kts 77°
2026-05-06 16:02 14.55418 -61.21813 3779 ft 223 kts 78°
2026-05-06 16:02 14.55684 -61.20247 3470 ft 220 kts 81°
2026-05-06 16:02 14.55976 -61.18713 3155 ft 215 kts 79°
2026-05-06 16:02 14.56217 -61.17223 2879 ft 207 kts 82°
2026-05-06 16:03 14.56459 -61.15780 2618 ft 201 kts 81°
2026-05-06 16:03 14.56709 -61.14374 2354 ft 198 kts 81°
2026-05-06 16:03 14.56921 -61.12989 2108 ft 192 kts 82°
2026-05-06 16:03 14.57135 -61.11669 1855 ft 175 kts 81°
2026-05-06 16:04 14.57344 -61.10512 1632 ft 153 kts 82°
2026-05-06 16:04 14.57539 -61.09471 1482 ft 147 kts 80°
2026-05-06 16:04 14.57711 -61.08429 1297 ft 146 kts 81°
2026-05-06 16:04 14.57898 -61.07397 1126 ft 146 kts 82°
2026-05-06 16:05 14.58020 -61.06774 1181 ft 125 kts 81°
2026-05-06 16:05 14.58200 -61.05630 1073 ft 116 kts 83°
2026-05-06 16:05 14.58290 -61.05077 933 ft 121 kts 80°
2026-05-06 16:05 14.58435 -61.04202 720 ft 123 kts 78°
2026-05-06 16:06 14.58584 -61.03350 506 ft 119 kts 79°
2026-05-06 16:06 14.58778 -61.02257 164 ft 110 kts 80°
2026-05-06 16:06 14.58901 -61.01525 30 ft 96 kts 82°
2026-05-06 16:06 14.58975 -61.01093 8 ft 84 kts 81°
2026-05-06 16:07 14.59062 -61.00576 4 ft 64 kts 80°
2026-05-06 16:07 14.59131 -61.00174 5 ft 46 kts 79°
2026-05-06 16:07 14.59203 -61.00021 7 ft 20 kts
2026-05-06 16:07 14.59274 -61.00029 7 ft 8 kts 349°
2026-05-06 16:08 14.59345 -61.00033 7 ft 14 kts 42°
2026-05-06 16:08 14.59372 -60.99904 7 ft 24 kts 81°
2026-05-06 16:08 14.59412 -60.99776 8 ft 13 kts 32°
2026-05-06 16:08 14.59467 -60.99772 8 ft 7 kts 351°
2026-05-06 16:09 14.59483 -60.99775 8 ft 1 kts 354°
2026-05-06 16:09 14.59484 -60.99775 8 ft 0 kts 354°